Regional Weather Roundup
Issued by NWS Jackson, KY

Home | Current Version | Previous Version | Graphics & Text | Print | Product List | Glossary Off
Versions: 1 2 3 4 5 6 7 8 9 10 11 12 13 14 15 16 17 18 19 20 21 22 23 24 25 26 27 28 29 30 31 32 33 34 35 36 37 38 39 40 41 42 43 44 45 46 47 48 49 50

000
ASUS43 KJKL 201419
RWRJKL

EAST KENTUCKY HOURLY WEATHER ROUNDUP
NATIONAL WEATHER SERVICE JACKSON KY
1000 AM EDT WED AUG 20 2014

NOTE: "FAIR" INDICATES FEW OR NO CLOUDS BELOW 12,000 FEET WITH
NO SIGNIFICANT WEATHER AND/OR OBSTRUCTIONS TO VISIBILITY.

* THESE REPORTS ARE NOT UNDER NWS QUALITY CONTROL AND MAY NOT
  REPORT WEATHER SUCH AS PRECIPITATION AND FOG.

KYZ079-080-083-085-087-088-110-112-115-119-120-201500
...EASTERN KENTUCKY...

CITY           SKY/WX    TMP DP  RH WIND       PRES   REMARKS
JACKSON        SUNNY     71  67  87 VRB3      30.00S
LONDON         MOSUNNY   77  71  82 S5        30.01S
SOMERSET*      CLOUDY    77  73  88 CALM      30.00S
MONTICELLO*    PTSUNNY   82  75  79 S5        30.00S
WILLIAMSBURG*  MOSUNNY   77  75  94 SW5       30.01
MIDDLESBORO*   PTSUNNY   75  71  86 CALM      30.02S
HARLAN APT*    CLOUDY    68  66  94 MISG      30.05S
HAZARD APT*    SUNNY     73  72  94 S7        30.00F
BLACK MTN*       N/A     61  61 100 SW1         N/A
PIKEVILLE APT* SUNNY     68  66  94 S7        30.00F
BIG SANDY*     CLOUDY    71  68  90 S6        29.99S
MOREHEAD APT*  CLOUDY    72  68  88 S5        29.99S
$$

KYZ035-036-041-042-044-050-067-078-099-201500
...CENTRAL KENTUCKY...

CITY           SKY/WX    TMP DP  RH WIND       PRES   REMARKS
MT STERLING*   SUNNY     73  70  88 SW8       29.99S
FLEMING/MASON* MOSUNNY   73  68  83 S5        29.97S
DANVILLE*      CLOUDY    75  72  88 CALM      29.99S
RICHMOND*      CLOUDY    73  70  88 S5        29.98S
LEXINGTON      PTSUNNY   79  70  74 S9        29.97R
FRANKFORT      SUNNY     77  71  82 S9        29.94S
$$

KYZ091>093-OHZ055-061-077-WVZ005-015-034-035-042-201500
...SOUTHERN OHIO/WEST VIRGINIA...

CITY           SKY/WX    TMP DP  RH WIND       PRES   REMARKS
COVINGTON      MOSUNNY   72  68  87 S7        29.94R
COLUMBUS       MOSUNNY   74  65  73 SW8       29.92R
DAYTON         MOSUNNY   74  66  76 SW7       29.94R
WILMINGTON     SUNNY     73  66  78 SW9       29.94S
HUNTINGTON     PTSUNNY   70  68  93 SW7       29.96S
CHARLESTON     CLOUDY    73  68  84 CALM      29.98R
PINEVILLE*     CLOUDY    70  70 100 MISG      30.06F
BECKLEY        CLOUDY    68  65  90 S5        30.04S
BLUEFIELD      LGT RAIN  68  61  78 S7        30.07F
$$

VAZ002-007-008-TNZ017-027-036-066-071-201500
...SOUTHWEST VIRGINIA/EAST TENNESSEE...

CITY           SKY/WX    TMP DP  RH WIND       PRES   REMARKS
WISE*          PTSUNNY   64  64 100 SW5       30.10R THUNDER
JONESVILLE*    LGT RAIN  68  68 100 CALM      30.08R
ABINGDON*      CLOUDY    72  71  96 S6        30.10R
BRISTOL        CLOUDY    71  67  87 SE5       30.07R THUNDER
KNOXVILLE      MOSUNNY   79  72  79 SW12      30.02R
OAK RIDGE      CLOUDY    76  72  87 VRB5      30.04R
CROSSVILLE     CLOUDY    78  72  81 VRB3      30.07S
NASHVILLE      MOSUNNY   85  76  74 W7        29.98R HX  94
$$

...KEY TO REMARKS...
VSB - VISIBILITY IN MILES
WCI - WIND CHILL INDEX
HX  - HEAT INDEX

$$



USA.gov is the U.S. government's official web portal to all federal, state and local government web resources and services.